Regional Weather Roundup
Issued by NWS

Home | Current Version | Previous Version | Text Only | Print | Product List | Glossary Off
Versions: 1 2 3 4 5 6 7 8 9 10 11 12 13 14 15 16 17 18 19 20 21 22 23 24 25 26 27 28 29 30 31 32 33 34 35 36 37 38 39 40 41 42 43 44 45 46 47 48 49 50

000
ASUS43 KMKX 180500
RWRWI

WISCONSIN REGIONAL WEATHER ROUNDUP
NATIONAL WEATHER SERVICE MILWAUKEE/SULLIVAN WI
1100 PM CST FRI NOV 17 2017

NOTE: "FAIR" INDICATES FEW OR NO CLOUDS BELOW 12,000 FEET WITH NO
SIGNIFICANT WEATHER AND/OR OBSTRUCTIONS TO VISIBILITY.

WIZ001-002-006>008-014>016-023>028-180600-
NORTHWEST WISCONSIN

CITY           SKY/WX    TMP DP  RH WIND       PRES   REMARKS
SUPERIOR ARPT  CLOUDY    31  31 100 CALM      29.67R FOG
ASHLAND        CLOUDY    34  32  92 NW3       29.67R FOG
HAYWARD        CLOUDY    33  31  92 N5        29.64F WCI  29
SIREN          CLOUDY    33  33  99 CALM      29.66F FOG
CUMBERLAND     CLOUDY    32  32 100 N6        29.64F FOG     WCI  26
RICE LAKE      CLOUDY    34  34 100 N3        29.65S FOG
CHETEK         CLOUDY    34  34 100 CALM      29.64S FOG
LADYSMITH      CLOUDY    34  34  99 N5        29.64F FOG     WCI  30
EAU CLAIRE     CLOUDY    36  35  96 N5        29.63F FOG     WCI  32
MENOMONIE      CLOUDY    36  36 100 NW6       29.63F FOG     WCI  31
NEW RICHMOND   CLOUDY    35  35 100 N8        29.65S FOG     WCI  28
OSCEOLA        CLOUDY    35  35 100 N5        29.69S FOG     WCI  31
$$

WIZ003>005-009-010-017-018-180600-
NORTH CENTRAL WISCONSIN

CITY           SKY/WX    TMP DP  RH WIND       PRES   REMARKS
MANITOWISH WTR CLOUDY    32  32 100 CALM      29.61R
ARBOR VITAE    CLOUDY    34  33  96 CALM      29.61R
WOODRUFF       CLOUDY    34  33  96 CALM      29.61R
RHINELANDER    CLOUDY    33  33 100 NW3       29.61R
EAGLE RIVER    CLOUDY    32  32 100 CALM      29.60R
LAND O LAKES   CLOUDY    33  33  99 CALM      29.61R FOG
PHILLIPS       FOG       32  32 100 CALM      29.61F VSB 1
TOMAHAWK       FOG       32  31  98 CALM      29.61S VSB 3/4
MEDFORD        FOG       32  32  99 N5        29.60F VSB 1/2 WCI  28
MERRILL        CLOUDY    33  33 100 CALM      29.61F FOG
$$

WIZ029-030-035-036-043>047-180600-
CENTRAL WISCONSIN

CITY           SKY/WX    TMP DP  RH WIND       PRES   REMARKS
WAUSAU         CLOUDY    34  33  96 N3        29.60R FOG
MOSINEE        NOT AVBL
MARSHFIELD     FOG       34  33  96 NW5       29.60S VSB 3/4 WCI  30
STEVENS POINT  FOG       33  33 100 CALM      29.63R VSB 3/4
WAUPACA        CLOUDY    38  37  97 W3        29.62R FOG
WAUTOMA        CLOUDY    36  36 100 NW3       29.62R FOG
WISC RAPIDS    CLOUDY    36  35  96 CALM      29.62S FOG
CAMP DOUGLAS   CLOUDY    36  36 100 N6        29.59F FOG     WCI  32
$$

WIZ011>013-019>022-031-037>040-048>050-180600-
NORTHEAST WISCONSIN

CITY           SKY/WX    TMP DP  RH WIND       PRES   REMARKS
ANTIGO         CLOUDY    32  32 100 NW3       29.60R FOG
SHAWANO        CLOUDY    37  36  94 CALM      29.61R FOG
OCONTO         CLOUDY    37  36  98 CALM      29.59F
STURGEON BAY   CLOUDY    38  37  97 W3        29.58F FOG
GREEN BAY      CLOUDY    38  38 100 W3        29.60S FOG
MANITOWOC      CLOUDY    39  38  96 CALM      29.59F FOG
APPLETON       LGT RAIN  37  37 100 CALM      29.58S
CLINTONVILLE   CLOUDY    36  36 100 CALM      29.61R FOG
OSHKOSH        CLOUDY    38  37  97 W6        29.60R FOG     WCI  33
$$

WIZ032>034-041-042-053>061-180600-
SOUTHWEST WISCONSIN

CITY           SKY/WX    TMP DP  RH WIND       PRES   REMARKS
LA CROSSE      LGT RAIN  39  38  96 N7        29.60F FOG     WCI  34
SPARTA         LGT RAIN  35  35 100 CALM      29.63F
VIROQUA        CLOUDY    36  36 100 N3        29.57F VSB 1
BOSCOBEL       CLOUDY    39  38  96 CALM      29.61R FOG
PRAIRIE DU CHI CLOUDY    38  37  97 CALM      29.60S FOG
PLATTEVILLE    CLOUDY    40  40 100 CALM      29.57F
$$

WIZ056-057-062-063-064-067-068-180600-
SOUTH CENTRAL WISCONSIN

CITY           SKY/WX    TMP DP  RH WIND       PRES   REMARKS
REEDSBURG      DRIZZLE   37  37 100 NW3       29.61R
BARABOO/DELLS  FOG       37  36  98 NW3       29.61R VSB 3/4
LONE ROCK      CLOUDY    39  39 100 CALM      29.59F FOG
MINERAL POINT  FOG       39  39 100 N3        29.57F VSB 3/4
MADISON        CLOUDY    39  38  96 NW3       29.59S FOG
MIDDLETON      CLOUDY    39  39 100 N3        29.60S
WATERTOWN      CLOUDY    39  39 100 CALM      29.59S FOG
MONROE         CLOUDY    39  37  93 CALM      29.57F FOG
JANESVILLE     DRIZZLE   41  41 100 CALM      29.57F
$$

WIZ051-052-058>065-066-070>072-180600-
SOUTHEAST WISCONSIN

CITY           SKY/WX    TMP DP  RH WIND       PRES   REMARKS
MILWAUKEE      CLOUDY    43  42  97 CALM      29.59F FOG
WAUKESHA       DRIZZLE   37  37 100 CALM      29.59F
MILWAUKEE/TIMM LGT RAIN  39  36  87 CALM      29.59F
RACINE         LGT RAIN  43  43 100 CALM      29.60F FOG
BURLINGTON     DRIZZLE   44  44 100 CALM      29.58F
KENOSHA        LGT RAIN  44  43  96 NW3       29.58F FOG
FOND DU LAC    LGT RAIN  39  36  89 NW5       29.60S FOG
SHEBOYGAN      LGT RAIN  40  40 100 CALM      29.57F FOG
WEST BEND      FOG       37  37 100 CALM      29.59F VSB 1
JUNEAU         FOG       37  37  98 CALM      29.60S VSB 1/2
$$

LSZ147-162-180600-
LAKE SUPERIOR

STATION/POSITION TIME  TEMP    WIND        PRES    WAVE
                       AIR SEA DIR/SP/G            HT/PER
                 (UTC) (F)     (DEG/KT/KT) (MB)    (FT/S)
DEVILS ISLAND    0400   37     330/ 10/ 12 1004.6S
SAXON HARBOR     0440   35     230/  5/  6 1004.1S
$$

LMZ867-665-643>646-180600-
LAKE MICHIGAN

STATION/POSITION TIME  TEMP    WIND        PRES    WAVE
                       AIR SEA DIR/SP/G            HT/PER
                 (UTC) (F)     (DEG/KT/KT) (MB)    (FT/S)
N MID LAKE BUOY  0350   42 48  250/ 16/ 21 1003.4F   8/ 9
NORTHPORT PIER   0440   39     290/  4/  7 1001.4F
SHEBOYGAN LAKESH 0400   41     220/  4/  5 1002.6F
PORT WASHINGTON  0430   41     230/  2/  2 1003.0F
MILWAUKEE LAKESH 0430   42     230/  2/  2   N/A
S MID LAKE BUOY  0350   45 50  210/ 21/ 25 1002.5F   8/ 7
KENOSHA   LAKESH 0400   44     250/  6/  9 1002.4
$$

TC  - TEMPERATURE IN CELSIUS
VSB - VISIBILITY IN STATUTE MILES
WCI - WIND CHILL INDEX
HX  - HEAT INDEX





USA.gov is the U.S. government's official web portal to all federal, state and local government web resources and services.